Regional Weather Roundup
Issued by NWS Albany, NY

Home | Current Version | Previous Version | Text Only | Print | Product List | Glossary On
Versions: 1 2 3 4 5 6 7 8 9 10 11 12 13 14 15 16 17 18 19 20 21 22 23 24 25 26 27
000
ASUS41 KALY 020410
RWRALY

NEW YORK STATE HOURLY WEATHER ROUNDUP
NATIONAL WEATHER SERVICE ALBANY NY
1200 AM EDT MON MAY 02 2016

NOTE: "FAIR" INDICATES FEW OR NO CLOUDS BELOW 12,000 FEET WITH NO
SIGNIFICANT WEATHER AND/OR NO OBSTRUCTIONS TO VISIBILITY.

NYZ032-033-038>043-046>054-057>066-NYZ062>081-082-084-020500-
EAST


CITY           SKY/WX    TMP DP  RH WIND       PRES   REMARKS
ALBANY         CLOUDY    45  38  76 S6        30.05F
GLENS FALLS    CLOUDY    45  39  79 VRB6      30.06F
POUGHKEEPSIE   CLOUDY    44  41  89 SE3       30.08F
NEWBURGH       CLOUDY    43  43 100 SE8       30.09F
MONTGOMERY     CLOUDY    44  42  93 E3        30.06F
WHITE PLAINS   DRIZZLE   42  41  96 CALM      30.07F FOG
ISLIP          CLOUDY    45  43  93 N8        30.06F
NEW YORK CITY  CLOUDY    47  44  90 NE12      30.08F
CENTRAL PARK   CLOUDY    46  44  93 CALM      30.11S FOG
$$

NYZ005>009-017-018-044>046-055-056-020500-
CENTRAL


CITY           SKY/WX    TMP DP  RH WIND       PRES   REMARKS
FULTON         CLOUDY    49  46  90 CALM      29.98S FOG
SYRACUSE       DRIZZLE   47  47 100 E3        29.97F
ROME           LGT RAIN  44  44 100 E8        30.01F FOG
ELMIRA         CLOUDY    50  45  83 SW5       29.99F
BINGHAMTON     CLOUDY    45  44  97 S10       29.99S
MONTICELLO     CLOUDY    43  43 100 SE6       30.05F
$$

NYZ026>034-041>043-087-020500-
NORTH


CITY           SKY/WX    TMP DP  RH WIND       PRES   REMARKS
WATERTOWN      CLOUDY    45  44  97 NE6       30.00F
FORT DRUM      NOT AVBL
MASSENA        CLOUDY    45  43  93 NE3       30.04F
SARANAC LAKE   CLOUDY    41  38  89 CALM      29.99F
PLATTSBURGH    CLOUDY    44  42  93 SE8       30.05F
$$

NYZ001>004-010>016-019>021-085-020500-
WEST


CITY           SKY/WX    TMP DP  RH WIND       PRES   REMARKS
NIAGARA FALLS  CLOUDY    46  42  86 NE8       30.01F
BUFFALO        CLOUDY    45  42  89 NE9       30.01F
DUNKIRK        CLOUDY    45  44  97 NE9       30.00F FOG
JAMESTOWN      CLOUDY    45  43  93 NW5       29.96F VSB 1/2
WELLSVILLE     CLOUDY    52  50  93 SW5       29.97F FOG
ROCHESTER      DRIZZLE   44  44 100 N7        30.01S FOG
PENN YAN       CLOUDY    51  49  92 N3        29.98S FOG
$$

             KEY
       WCI = WIND CHILL INDEX
       VSB = VISIBILITY
       HX  = HEAT INDEX
$$




USA.gov is the U.S. government's official web portal to all federal, state and local government web resources and services.